User: anonymous   Login
Location: Unspecified
(0.0000°N, 0.0000°E)
Time: 11:03:12
(UTC+00:00)
Language:

BIRD GG - Orbit

View from above orbital plane
View from above orbital plane
View from above satellite
View from above satellite

Ground track
Ground track

The orbit data is extracted from the following two-line orbital elements,

1 42821U 98067MV  19081.84698261  .00092373  00000-0  32046-3 0  9992
2 42821  51.6251   7.7979 0004116 146.3174 213.8094 15.88669654 97759
Epoch (UTC): 22 March 2019 20:19:39
Eccentricity: 0.0004116
inclination: 51.6251°
perigee height: 303 km
apogee height: 309 km
right ascension of ascending node: 7.7979°
argument of perigee: 146.3174°
revolutions per day: 15.88669654
mean anomaly at epoch: 213.8094°
orbit number at epoch: 9775

The dashed part of the orbit path shows where the satellite is in the earth's shadow,  

DLR